Location: Newark
(50.0306°N, 2.3272°E)
Time: 05:31:36
(UTC+00:00)

A-11 Canister half - Pass Details

Date: 15 December 2019
Orbit: 1525 x 1684 km, 47.3° (Epoch: 26 January)

Event Time Altitude Azimuth Distance (km) Brightness Sun altitude
Rises 07:19:36 0° 264° (W) 4,926 11.2 -3.9°
Reaches altitude 10° 07:22:45 10° 263° (W) 3,945 10.7 -3.4°
Maximum altitude 07:32:55 78° 179° (S) 1,717 9.4 -2.1°
Drops below altitude 10° 07:42:59 10° 96° (E) 3,909 12.3 -0.8°
Sets 07:46:05 0° 95° (E) 4,880 12.8 -0.4°
